Theta_e
290 288 286 286 288 289 288 286 286 284 285 283 281 280 281 280 283 282 284 288 285 288 288 286 285 285 289 291 293 294 291 290 290 291 292 292 292 292 292 292 293 293 295 297 296 296 296 297 297 299 304 309 312 315 316 316 318 320 321 321 322 326 329 331 331 331 331 330 330 330 331 330 332 331 332 331 333 333 333 333 333 331 330 329 326 324
289 286 286 287 287 288 285 283 285 284 283 285 282 282 281 284 284 286 288 286 285 288 285 281 285 289 290 291 292 292 289 291 292 292 292 292 292 292 292 292 293 294 294 294 296 296 294 295 295 295 297 301 305 309 313 315 316 318 319 320 322 323 326 329 331 331 330 331 331 330 330 330 331 329 328 330 331 332 333 333 332 331 331 330 328 325
288 286 288 287 285 284 283 283 283 285 283 281 284 281 283 283 282 285 285 285 285 288 285 283 287 290 292 292 293 291 291 291 290 290 291 291 292 292 293 292 292 292 293 293 293 292 292 293 293 293 295 296 301 304 309 312 314 315 316 319 320 321 323 326 329 330 329 331 331 331 330 330 328 328 330 331 330 330 330 331 333 334 333 332 330 328
285 286 287 285 286 288 283 283 286 284 282 282 282 285 282 282 285 286 286 285 285 287 288 286 285 289 287 284 283 285 286 287 286 286 287 289 290 291 292 291 291 291 292 293 293 294 293 292 292 292 292 295 296 299 303 307 311 313 315 317 318 319 321 323 325 326 329 327 326 325 326 326 329 326 319 324 323 327 330 330 330 330 332 332 333 332
284 286 286 285 286 289 286 284 287 286 285 283 282 281 282 285 283 283 286 284 282 285 283 284 285 285 280 282 283 286 282 284 286 284 286 286 287 288 288 287 288 290 291 292 292 293 292 292 293 293 292 292 295 298 301 304 308 311 313 315 317 318 319 320 321 323 324 322 322 321 317 317 318 317 318 320 322 323 322 325 327 329 330 331 330 331
285 286 284 286 285 284 286 285 284 286 283 286 282 283 283 283 284 284 284 284 279 286 282 281 282 279 279 282 281 282 284 287 285 286 289 289 290 289 293 294 294 290 288 289 291 292 291 292 293 294 293 293 294 295 299 302 306 309 311 313 315 316 317 319 319 321 322 323 324 321 321 319 319 320 319 319 322 321 320 323 326 326 328 329 331 332
284 286 284 286 286 285 285 285 285 286 283 284 287 284 282 284 284 283 283 283 281 281 284 280 281 276 279 283 283 281 281 284 286 286 289 289 290 291 292 293 294 294 294 292 291 293 295 296 295 297 296 295 295 296 294 296 302 306 309 311 314 316 316 317 318 319 320 322 323 323 323 323 322 321 323 324 324 325 324 323 323 325 325 327 328 329
286 286 284 284 285 285 284 284 285 286 285 285 283 282 284 285 286 283 283 284 282 281 285 280 278 279 279 284 282 280 282 282 285 289 290 290 290 291 292 292 293 294 294 293 295 295 295 295 295 296 296 296 296 294 293 296 298 304 307 309 311 313 314 315 317 317 320 321 321 321 322 322 322 322 322 323 322 319 319 321 322 323 324 325 326 327
286 286 284 285 283 283 285 283 285 285 285 284 282 283 284 284 282 282 283 282 281 283 283 279 282 281 276 283 282 281 290 282 286 289 290 289 290 290 292 293 293 293 293 292 294 296 295 296 296 295 296 296 294 294 295 296 297 299 303 305 306 310 312 312 314 317 317 320 320 320 320 319 320 321 321 314 311 317 315 317 318 317 320 322 324 325
288 287 287 288 287 284 283 283 282 286 286 285 282 283 282 281 281 282 281 283 280 277 275 280 279 276 277 279 281 281 285 283 286 289 288 287 288 290 291 292 292 293 293 293 294 294 295 295 294 293 293 295 295 293 294 295 297 299 301 303 305 307 309 309 311 314 315 316 316 318 318 318 319 318 315 313 315 311 309 313 315 314 315 317 320 322
288 290 289 287 287 285 285 284 283 284 285 285 284 287 284 281 280 278 278 278 277 273 275 277 277 279 276 281 281 287 287 282 284 286 287 288 291 291 290 290 292 292 294 295 295 295 296 295 294 294 295 294 295 294 295 296 296 297 300 302 304 303 304 305 309 311 313 314 315 317 317 317 316 316 315 314 314 311 307 310 312 311 312 314 315 318
287 288 289 287 286 284 286 286 286 283 284 285 284 281 285 282 278 278 273 274 273 267 269 276 277 278 276 277 284 282 282 280 286 288 287 290 289 290 290 290 291 291 293 294 295 296 296 297 297 297 297 296 295 295 295 295 295 296 298 301 302 301 301 303 305 308 310 312 313 314 316 316 316 316 315 315 315 314 313 313 313 311 309 309 310 313
286 287 286 288 288 288 286 288 286 287 283 285 284 286 280 272 269 275 267 275 272 269 279 276 276 278 279 280 283 283 282 282 282 287 290 288 290 289 290 290 289 291 292 294 295 296 296 296 296 296 296 297 297 296 294 293 294 295 296 297 301 301 297 299 301 305 306 308 310 312 313 314 314 313 314 314 315 314 312 313 312 310 310 310 308 309
284 283 287 289 289 289 289 287 284 285 284 284 286 281 277 271 267 267 261 261 266 272 275 279 277 277 278 282 284 287 287 284 283 282 284 286 288 289 289 288 288 292 292 293 294 295 295 295 296 295 295 295 295 295 295 295 294 294 295 295 298 298 296 296 299 300 302 304 305 306 308 310 311 311 311 312 313 313 312 312 312 311 311 311 310 310
278 280 285 288 287 289 289 288 290 287 286 286 283 286 282 272 268 267 265 272 271 270 273 274 274 274 277 283 285 282 284 283 282 282 282 283 283 284 283 284 287 292 292 292 294 294 294 294 294 295 295 295 295 295 295 295 294 295 296 296 297 298 297 296 297 297 299 301 301 302 303 305 306 308 309 310 310 311 310 310 310 310 310 310 311 310
283 280 284 286 286 287 290 289 286 287 286 283 280 283 281 280 276 269 265 264 264 269 270 275 275 276 283 285 284 282 282 284 282 283 283 286 285 284 289 292 292 292 292 292 294 294 293 294 294 295 295 295 295 294 295 295 295 295 295 295 295 296 296 295 296 297 297 299 299 299 300 302 303 304 304 305 306 307 307 308 308 309 309 309 309 309
281 281 284 284 286 287 289 287 288 288 286 285 284 280 282 281 279 271 267 271 270 268 271 268 277 280 281 283 282 282 285 284 283 284 283 286 287 288 290 292 292 292 291 293 293 293 293 294 294 294 294 294 294 294 294 294 293 294 294 295 296 296 295 296 296 296 296 297 297 298 298 299 300 301 302 304 304 305 305 305 306 306 307 306 306 307
283 281 284 285 287 288 286 286 286 284 287 284 280 283 282 281 281 277 272 265 263 269 270 271 275 278 275 280 281 285 285 286 284 284 285 286 287 291 291 291 292 292 292 291 291 291 292 292 292 293 294 294 293 294 294 294 293 293 293 294 295 295 296 296 295 296 296 296 297 297 298 298 299 300 301 302 302 303 302 303 303 303 303 304 305 304
285 280 284 284 285 288 286 288 289 288 286 284 282 285 285 279 277 277 273 267 267 266 264 268 273 273 277 280 280 283 284 284 284 284 286 288 289 291 291 292 292 292 291 292 292 292 292 292 293 293 293 293 293 293 293 294 294 294 294 293 294 295 295 295 295 294 294 294 295 296 297 297 298 298 299 300 300 300 300 301 302 302 303 302 302 302
284 279 281 285 285 287 287 287 285 285 286 285 286 284 284 281 277 275 276 271 273 266 264 269 269 276 278 279 279 286 284 285 285 285 288 290 290 290 290 291 291 292 291 291 292 292 292 292 292 292 292 293 293 293 293 294 294 294 294 294 294 294 294 294 294 293 294 293 294 294 294 295 295 296 297 298 298 299 299 300 300 301 300 302 301 301
286 282 276 284 285 286 285 285 285 286 283 282 282 282 285 280 282 281 277 275 275 266 265 263 268 272 277 279 281 284 282 284 288 289 289 289 290 289 290 290 291 290 291 290 291 292 292 292 292 292 292 292 292 292 293 293 293 293 293 293 293 294 294 294 294 294 294 293 293 292 293 294 293 294 295 294 295 296 297 298 298 298 299 296 298 299
283 283 279 282 282 283 283 284 284 286 287 286 285 284 286 281 279 277 277 276 267 272 267 264 273 273 279 279 283 283 281 285 287 292 290 289 289 289 289 290 290 291 290 289 289 290 291 291 291 292 292 292 292 292 292 292 293 293 292 292 292 293 293 293 293 293 292 293 292 292 292 292 291 292 292 292 293 293 294 294 295 295 294 295 297 296
286 282 283 278 282 285 286 286 283 283 285 284 285 285 285 283 281 274 273 275 271 274 271 268 270 275 281 279 280 281 280 285 286 289 290 289 288 288 288 290 290 290 290 289 290 290 290 290 290 290 290 291 290 291 291 292 292 292 291 291 291 291 291 291 291 291 291 292 292 292 291 290 291 290 290 290 292 291 292 293 292 292 293 294 295 294
290 281 278 279 279 281 284 284 284 283 286 287 285 282 284 284 283 280 274 276 279 272 272 269 267 274 278 280 280 281 279 279 282 285 289 288 287 287 288 290 289 289 289 289 289 290 289 289 289 291 291 291 291 291 291 291 291 291 291 290 291 291 290 291 290 290 290 290 290 291 290 290 290 290 290 291 291 291 291 291 291 291 291 292 292 292
285 283 284 274 275 278 279 283 283 284 286 283 282 282 282 280 278 275 273 270 272 275 276 276 273 269 282 281 281 279 281 283 285 284 284 288 287 288 288 289 287 288 290 289 290 289 290 290 290 290 290 290 289 289 290 290 290 290 290 290 290 290 290 290 290 290 290 290 291 291 291 291 291 291 291 291 291 291 291 290 290 290 291 291 291 292
286 283 284 278 277 275 273 273 279 282 283 282 279 281 283 285 279 280 278 276 274 273 278 273 274 278 280 283 283 282 282 284 284 284 283 284 288 289 289 289 288 288 289 288 288 289 289 288 288 289 289 289 289 289 289 289 289 289 289 290 289 289 289 290 289 290 290 290 290 291 291 291 291 291 291 290 291 290 290 290 290 290 290 290 291 291
282 283 285 285 283 281 283 283 284 284 282 282 282 283 283 284 283 283 279 275 279 276 276 280 278 282 282 284 282 284 284 286 287 286 287 287 286 285 285 286 286 288 287 287 288 288 288 289 289 289 288 288 288 288 289 289 289 289 289 289 289 289 289 289 288 289 289 289 289 290 290 290 290 290 290 290 290 290 290 290 290 290 290 290 290 290
281 284 284 285 285 286 282 281 282 287 284 284 282 282 283 283 282 282 281 282 282 277 274 281 279 280 281 281 283 285 285 284 285 286 287 287 288 288 288 287 288 288 288 288 289 289 289 288 288 287 288 288 288 288 288 288 288 288 288 288 289 288 288 288 288 288 288 288 289 289 289 289 289 289 289 289 289 290 290 290 290 290 290 289 290 290
284 284 284 284 284 282 278 281 283 285 285 285 285 283 282 283 281 283 283 285 282 282 281 282 281 282 282 284 286 287 288 288 289 288 288 289 287 287 287 289 288 287 287 287 287 287 287 288 287 286 287 287 287 288 288 288 288 288 288 288 288 287 288 287 287 287 288 288 288 289 289 289 289 289 289 289 289 289 289 289 289 289 289 290 290 290
286 280 282 283 283 282 281 281 283 284 282 282 284 284 285 283 283 285 286 286 284 284 285 282 283 285 285 286 287 289 290 289 287 286 285 287 288 287 287 286 287 287 286 287 287 288 287 287 286 286 287 287 287 287 287 287 287 287 287 287 287 287 287 287 286 286 287 287 288 288 288 288 288 288 288 288 288 288 288 288 288 288 288 289 289 289
287 280 285 281 279 279 280 281 282 282 282 281 281 283 284 284 285 285 286 286 284 284 282 279 280 282 284 285 288 290 287 285 286 286 288 288 286 286 286 286 286 287 287 287 287 287 286 286 286 286 286 286 286 286 286 286 286 286 286 287 287 286 286 286 286 286 286 287 287 287 287 287 287 287 287 287 287 287 287 287 287 287 287 288 288 288
286 279 281 280 277 274 279 280 279 280 280 281 279 281 282 282 282 284 283 284 283 283 284 280 281 284 285 285 286 287 286 286 288 288 288 288 286 285 286 286 287 287 287 287 287 286 286 286 286 286 286 286 286 286 286 286 286 286 287 286 286 286 286 285 286 286 286 287 287 287 287 286 286 286 286 286 286 286 286 286 286 286 286 287 287 287
283 281 278 275 276 271 276 277 277 278 278 275 279 282 283 284 285 285 285 284 287 288 283 279 283 289 286 290 288 286 287 287 287 289 288 287 286 286 287 287 287 287 287 287 286 286 286 286 286 286 285 286 286 286 286 285 285 286 286 286 286 285 285 285 286 286 286 287 286 286 286 286 286 286 286 286 285 285 285 285 285 285 286 286 287 286
283 283 277 279 277 270 274 275 276 276 272 276 286 286 285 284 284 283 284 286 286 287 286 286 287 286 287 287 288 289 288 289 290 290 289 291 288 285 286 287 287 286 286 285 285 286 286 285 285 285 285 285 285 285 285 284 285 285 285 285 285 284 285 285 286 286 286 286 286 286 286 285 285 285 285 285 285 285 285 285 285 286 286 286 286 286
283 281 278 274 275 273 272 274 276 272 275 284 282 284 288 288 287 286 288 287 288 287 287 286 285 284 287 289 290 291 292 288 284 288 287 287 290 289 288 286 286 286 286 286 286 286 286 285 285 284 285 285 285 285 284 285 285 285 284 284 284 284 284 285 285 286 286 286 286 286 285 285 285 284 285 285 285 284 285 285 285 285 285 286 286 285
282 283 278 274 274 275 274 275 272 273 278 282 282 283 284 285 285 285 284 285 284 287 288 288 290 288 287 288 288 287 287 285 286 285 285 286 287 288 287 287 286 286 286 285 286 286 285 286 286 285 285 284 284 284 284 285 284 284 284 284 284 284 284 284 285 285 285 285 285 285 285 284 283 284 284 284 284 284 284 284 284 284 285 285 285 285
286 284 282 279 279 276 276 277 276 279 281 281 283 283 285 283 283 284 282 285 289 288 288 289 290 287 287 286 285 284 284 286 288 287 287 285 285 285 287 287 286 286 286 285 285 286 285 284 284 284 284 284 284 284 284 284 283 283 283 283 284 284 284 284 285 285 284 284 284 284 284 284 283 283 283 283 282 282 283 283 283 283 284 283 284 284
288 287 283 284 280 281 277 274 275 276 276 282 283 283 286 285 289 289 286 284 285 288 289 289 288 288 287 284 284 284 285 288 286 286 287 286 284 286 285 285 284 284 284 284 284 284 284 284 284 284 283 283 284 284 283 283 283 283 283 284 284 283 283 284 284 284 283 283 283 283 283 283 282 281 281 281 281 281 282 282 282 282 282 282 282 282
286 287 286 286 283 282 280 278 278 275 280 283 283 285 286 285 289 287 283 282 286 286 288 289 289 287 288 286 284 285 287 286 287 288 287 287 285 284 286 284 284 284 284 284 285 285 284 284 284 284 284 284 283 283 283 282 282 283 283 283 283 282 282 283 283 283 283 283 283 283 282 282 281 281 280 280 280 281 280 280 281 281 281 281 281 281
286 285 286 284 282 283 282 280 278 279 279 283 285 283 284 286 290 288 276 280 285 286 288 288 289 288 288 288 286 287 288 286 288 288 288 287 286 283 284 284 284 284 284 283 284 284 284 283 284 283 283 283 283 282 282 282 282 281 282 282 281 281 282 282 282 283 282 282 282 282 281 281 280 280 279 279 280 280 280 280 280 280 280 280 281 281
284 283 285 282 283 284 284 282 281 281 283 282 284 282 283 287 289 281 278 284 287 287 287 289 289 291 289 286 287 286 289 288 285 285 287 285 284 283 282 282 283 284 284 283 283 283 282 282 282 282 282 282 282 282 281 281 281 281 281 280 280 280 281 282 282 282 282 281 281 280 280 280 279 278 279 279 279 279 279 279 279 279 279 279 280 279
284 285 284 285 282 282 283 282 282 283 283 282 281 284 285 287 279 280 286 282 285 286 282 285 288 285 286 287 287 289 284 280 283 285 285 285 285 283 283 283 283 283 282 281 281 282 282 282 282 282 282 281 281 280 280 279 279 280 280 279 279 280 281 281 281 281 280 279 279 279 278 278 278 278 278 278 278 278 278 279 278 278 278 279 278 278
284 283 281 282 285 284 283 281 280 277 285 285 286 284 284 283 283 285 281 282 281 281 283 282 284 283 286 285 283 282 282 283 285 285 284 284 284 283 283 283 283 282 282 282 282 281 281 281 281 281 281 281 279 279 279 276 276 277 277 277 279 280 279 279 279 279 278 278 277 277 277 277 277 277 278 278 278 277 277 278 277 277 278 277 277 277
288 283 283 284 287 281 281 278 280 286 287 288 290 285 284 287 283 282 286 284 281 280 281 282 281 283 285 286 283 283 283 284 283 284 283 283 283 282 281 281 281 281 280 280 280 279 279 280 280 279 279 279 278 277 276 275 275 276 276 276 279 278 278 277 277 277 276 276 276 276 276 276 277 277 277 277 277 276 276 276 277 277 278 277 277 277
288 285 287 284 287 285 283 285 288 288 287 289 288 286 286 287 281 284 284 286 284 282 281 283 284 283 284 285 284 284 283 284 284 284 284 283 282 282 282 281 281 281 280 279 279 277 277 277 276 276 276 276 275 275 274 273 273 274 274 276 277 276 275 275 275 275 275 275 275 275 275 276 276 276 276 276 276 276 277 276 276 277 277 276 276 277
282 285 285 286 285 287 287 287 286 284 284 287 281 282 282 284 282 282 284 285 285 284 284 285 284 283 283 285 284 282 284 283 282 282 281 281 281 280 280 280 279 278 277 275 275 275 273 273 272 272 273 275 275 275 273 272 272 271 273 274 274 274 274 275 275 275 275 275 275 274 274 274 275 276 276 276 277 276 276 276 276 276 276 277 277 277
282 282 285 283 284 286 282 285 285 286 282 282 283 281 280 280 282 282 283 285 286 284 283 283 284 284 285 285 286 285 283 283 282 281 281 280 280 280 279 278 277 276 275 273 274 271 271 270 270 270 272 272 272 272 271 269 270 270 271 271 272 273 274 275 275 275 275 274 274 274 274 274 275 276 276 277 277 277 277 276 276 276 276 276 276 276
281 282 284 280 281 284 282 283 281 279 278 278 279 283 284 282 281 281 282 282 283 283 283 283 282 283 283 284 284 284 282 282 282 281 280 279 279 278 277 276 274 273 273 272 271 270 268 268 268 268 268 269 270 270 269 268 267 268 269 271 272 273 274 274 274 273 273 273 273 274 274 275 275 275 276 277 277 277 277 278 278 277 277 277 277 277
278 283 277 281 283 281 281 281 279 280 281 280 279 279 282 281 281 281 282 282 282 283 282 280 280 281 282 283 283 282 280 279 280 280 278 277 276 276 274 273 272 271 271 269 269 268 268 267 266 265 266 267 268 266 266 265 266 268 270 271 273 274 274 272 272 272 272 272 272 273 274 275 275 275 275 276 277 278 278 278 278 278 279 279 279 278
280 279 278 281 276 275 281 282 278 279 278 284 283 283 281 281 282 282 282 281 282 281 281 280 277 276 277 279 282 281 279 277 276 276 276 276 274 272 271 270 269 268 269 269 269 267 265 265 264 264 264 265 265 264 264 265 267 269 271 272 273 273 270 270 270 270 270 270 271 271 272 272 273 274 275 275 276 276 278 279 281 281 279 279 281 282
281 281 280 277 279 279 284 284 284 287 284 283 285 283 282 282 282 281 282 282 281 281 281 279 277 276 275 273 274 278 277 275 273 273 273 272 270 269 269 268 267 267 267 267 266 264 263 263 263 262 262 263 264 263 265 266 268 270 271 273 271 270 270 269 269 268 268 269 269 270 270 271 272 273 274 275 275 276 276 277 279 282 283 283 282 283
Wind_Speed
1 7 7 9 10 10 6 4 4 3 7 7 6 6 5 5 1 2 2 0 1 1 4 3 5 6 11 11 12 12 1 4 7 10 8 6 7 7 7 8 8 8 12 4 5 6 7 6 6 6 6 8 8 9 10 10 11 12 11 9 12 10 9 8 8 8 9 9 8 8 10 10 7 7 6 6 6 7 7 8 10 11 11 12 13 13
4 6 7 5 6 7 8 9 10 10 5 7 6 5 1 1 2 1 1 2 2 2 1 1 3 9 11 11 12 8 2 10 9 8 8 9 7 7 7 9 7 9 5 6 8 6 5 6 5 5 5 5 9 10 9 12 12 10 8 10 10 6 9 10 10 9 8 9 9 8 8 7 7 6 7 7 6 7 7 8 7 6 6 9 10 11
3 8 7 5 6 10 7 6 5 7 7 4 5 4 3 3 2 2 1 2 3 1 4 1 4 9 11 10 10 5 6 6 3 3 6 6 10 8 7 7 8 7 10 6 8 6 8 7 6 4 5 5 7 4 8 9 7 8 9 10 8 7 9 10 9 8 9 7 7 8 6 5 4 3 5 7 6 6 5 5 8 9 9 6 6 6
3 4 6 5 8 11 4 5 11 9 7 7 6 4 5 2 3 1 3 1 4 2 1 1 4 10 7 8 8 5 3 6 5 7 8 5 8 9 9 6 8 11 9 10 9 10 8 7 8 6 4 5 4 6 5 6 8 7 8 8 7 7 7 8 8 9 6 5 4 4 4 3 5 5 3 4 3 6 8 9 7 5 5 8 10 12
6 1 1 8 4 10 7 3 8 6 3 1 4 4 5 2 2 2 2 0 1 1 1 0 2 7 4 4 4 1 5 4 5 7 3 2 5 7 8 7 6 9 7 9 9 8 7 8 7 7 6 4 4 5 6 6 6 6 8 7 8 8 8 7 8 9 6 4 4 3 2 1 1 1 2 3 5 5 5 6 7 9 8 8 7 5
0 1 3 7 4 5 7 3 4 9 4 1 4 6 5 5 7 0 1 2 4 1 6 3 3 2 4 7 7 7 8 9 4 6 6 6 5 4 5 6 6 4 5 7 7 8 8 6 8 6 6 5 3 4 4 4 5 6 6 7 7 7 7 8 8 9 8 8 7 6 6 7 5 7 5 8 10 7 7 9 6 6 7 7 8 8
2 0 2 6 7 5 6 6 5 5 7 5 4 5 4 8 8 7 4 3 1 1 3 2 2 3 7 6 3 4 8 7 6 4 5 6 7 6 6 6 6 6 6 3 3 5 7 8 7 7 6 5 5 5 4 4 5 6 6 7 8 8 7 7 8 9 8 8 8 10 10 10 9 9 9 7 6 7 6 5 6 6 6 7 8 8
2 1 4 4 6 6 5 4 4 8 9 5 1 6 8 9 8 5 6 2 1 1 1 6 4 1 5 8 4 3 3 4 5 6 6 7 7 7 7 7 6 7 5 5 6 6 5 5 5 6 6 5 5 5 4 3 2 4 6 6 7 6 6 7 7 8 9 9 9 9 10 8 9 9 10 5 5 4 4 6 8 7 6 7 8 8
3 4 3 6 2 5 8 3 4 5 6 1 2 4 5 6 5 6 6 5 1 0 4 4 5 0 4 8 5 4 1 4 3 4 5 6 6 7 7 8 7 7 6 5 5 6 6 6 6 5 6 6 5 5 5 4 3 1 2 4 3 5 5 5 6 7 7 6 7 7 6 6 6 6 6 1 3 5 5 7 6 6 7 7 8 8
2 4 6 5 7 6 2 1 1 4 5 1 6 7 8 8 7 5 4 5 1 3 4 2 4 2 7 6 6 2 0 1 1 1 3 4 4 5 7 7 7 6 5 4 3 3 4 4 5 5 4 6 6 5 4 5 4 3 3 3 3 3 1 2 4 4 4 4 4 5 5 7 7 5 5 4 5 4 3 6 7 6 6 6 7 8
1 3 4 3 3 2 5 3 1 2 3 10 4 9 7 9 5 4 7 3 3 1 5 2 4 1 3 4 5 1 2 5 4 1 1 3 5 6 4 4 5 6 6 6 6 6 5 3 3 4 8 5 6 6 6 7 6 5 4 3 4 2 2 2 2 3 5 5 5 6 7 8 8 8 7 6 7 6 5 7 7 7 6 5 7 7
1 1 1 0 2 4 3 5 6 3 5 6 4 5 7 5 6 5 5 5 2 4 3 2 2 2 5 4 3 8 4 4 7 5 4 5 4 4 4 5 5 4 4 4 6 8 7 8 9 6 9 7 5 6 7 6 6 6 5 4 5 4 3 2 1 3 4 5 5 6 7 8 8 7 7 8 9 7 9 8 8 6 5 5 5 6
3 2 1 3 3 7 4 10 4 1 4 4 7 7 8 1 4 1 3 1 4 5 1 3 1 1 6 9 2 4 4 5 7 4 3 1 3 4 4 5 5 3 3 6 7 7 9 9 9 10 8 9 10 9 8 7 6 5 6 6 5 4 5 4 3 0 1 2 3 4 5 6 5 6 7 8 8 7 7 7 7 6 6 6 5 6
2 1 1 1 2 4 4 12 3 1 1 3 9 7 6 3 2 2 2 1 5 5 4 1 1 2 4 10 10 10 8 5 6 7 6 2 1 2 3 4 4 4 4 5 6 7 8 8 7 7 8 8 8 9 9 8 8 6 6 6 7 5 5 4 4 2 2 2 3 3 4 5 5 6 7 7 7 7 7 7 8 7 7 7 8 8
5 3 5 6 2 2 1 2 10 7 9 6 1 6 8 8 5 4 4 4 5 5 2 3 1 6 5 4 0 6 5 2 3 5 3 4 5 5 6 5 2 3 4 4 7 7 7 8 7 8 8 8 8 8 8 7 7 7 7 7 8 7 6 5 3 1 1 3 4 4 4 5 4 5 5 6 6 6 6 6 6 7 6 7 8 8
6 3 2 3 2 0 7 1 3 6 6 0 3 5 5 6 5 2 3 3 2 1 1 1 5 3 3 0 4 3 5 1 2 5 2 3 1 1 1 3 3 4 4 4 6 7 7 6 6 7 8 8 8 8 8 9 8 8 8 7 7 7 6 5 5 4 2 3 3 4 4 5 4 4 4 5 5 6 6 7 6 7 7 7 7 7
3 3 2 6 3 2 0 0 1 1 8 4 4 4 4 2 11 7 2 1 1 4 4 2 7 6 8 5 1 1 2 2 2 2 3 4 4 4 5 3 3 3 4 5 6 6 5 5 7 7 7 7 7 9 9 8 7 7 7 8 8 8 8 8 7 6 5 4 4 5 4 4 4 4 6 6 7 7 6 5 6 7 7 6 7 7
9 3 3 3 1 1 0 0 2 6 1 9 2 7 2 2 6 5 3 3 4 3 6 2 6 4 3 5 3 2 5 1 2 4 6 4 5 7 5 3 2 3 3 3 4 4 6 6 6 6 7 8 9 8 8 8 6 6 6 6 7 7 8 7 7 7 6 6 6 6 6 5 4 5 5 5 7 6 6 6 5 6 6 7 7 7
7 4 1 1 1 4 2 0 5 2 3 3 3 4 6 2 2 2 5 1 1 1 4 2 2 5 5 6 0 4 7 5 3 4 6 7 6 7 5 2 0 1 3 4 4 4 5 7 7 7 8 7 7 7 7 6 6 6 7 6 6 7 5 4 5 5 5 4 4 4 5 6 6 5 5 5 5 5 6 7 6 7 7 7 7 6
2 5 1 1 2 1 2 2 9 3 4 2 2 3 1 3 2 4 6 3 5 3 2 5 3 5 8 7 10 9 11 9 7 6 8 9 9 7 5 4 4 3 4 4 6 7 7 7 7 8 8 9 9 8 7 7 7 10 8 8 8 6 5 6 7 6 7 5 4 5 5 5 4 5 5 5 5 6 6 7 7 7 7 8 7 7
3 1 5 1 2 2 3 3 8 9 10 2 2 2 1 2 2 5 2 3 4 5 5 2 3 5 7 7 7 9 7 9 13 12 9 8 9 7 6 6 4 4 5 5 5 6 7 7 7 8 7 6 5 5 7 8 9 7 7 9 9 10 10 10 9 8 7 6 6 6 6 6 6 6 5 6 5 6 7 6 6 6 7 5 8 7
3 1 7 2 3 5 4 1 2 5 3 6 9 11 11 10 5 5 6 2 2 3 4 5 8 6 9 2 7 6 7 10 10 16 12 10 8 7 5 4 3 5 3 4 4 5 6 6 7 6 6 4 7 9 10 8 8 9 10 8 8 8 8 9 10 9 8 6 6 7 6 6 5 5 5 5 6 6 6 6 6 6 6 7 8 6
4 3 8 5 6 4 1 1 1 2 1 1 1 5 5 2 6 4 5 5 3 0 5 3 0 8 5 3 4 5 4 8 9 6 12 8 8 6 5 2 1 1 4 5 6 6 6 5 5 6 8 8 8 7 8 8 9 8 8 8 8 8 9 8 7 6 5 6 7 8 7 7 7 7 6 6 6 6 6 6 7 6 6 7 7 6
5 5 5 2 1 3 2 1 1 1 0 1 3 2 5 8 5 6 3 7 8 3 1 1 1 7 4 2 4 5 4 3 1 2 8 9 6 6 4 2 1 4 4 4 5 5 6 4 4 6 8 9 8 8 9 7 7 8 8 8 8 9 9 8 7 7 6 6 7 6 6 6 5 5 5 6 6 7 7 7 7 6 6 6 6 7
5 3 9 3 2 2 3 2 1 2 1 4 3 4 2 4 5 2 5 1 3 8 8 8 7 5 2 5 2 1 1 4 5 3 4 8 6 5 4 1 1 2 5 6 6 5 5 6 7 7 5 6 7 7 6 8 8 8 8 8 9 8 7 7 7 7 7 8 8 7 7 8 7 8 8 8 7 8 7 7 6 6 6 6 6 7
2 4 8 8 9 8 6 5 10 12 12 3 0 2 5 9 8 5 3 1 3 3 8 4 7 7 7 2 2 1 5 4 2 3 3 4 6 7 4 2 3 5 5 4 5 5 5 4 4 5 6 5 5 4 4 5 6 6 6 7 6 7 8 8 7 7 7 7 8 9 10 9 9 10 10 9 9 9 9 8 7 7 6 5 7 7
3 1 6 8 12 13 14 8 1 9 6 7 5 9 6 5 5 4 5 5 10 4 6 7 4 2 3 1 1 6 7 9 8 5 8 7 5 4 3 2 3 5 4 3 1 1 2 3 3 3 3 4 4 4 3 5 6 6 6 7 7 7 7 8 7 8 8 8 8 9 10 10 10 9 9 9 9 8 9 9 9 8 9 7 7 7
3 4 7 7 10 9 3 3 5 7 8 6 7 8 8 9 8 8 9 12 7 9 7 10 7 6 9 3 6 9 8 6 5 7 7 6 6 7 3 1 3 4 4 3 2 1 0 0 1 1 1 2 3 3 4 5 5 5 6 6 7 7 7 7 8 8 8 7 8 8 8 8 8 8 8 8 8 8 8 9 9 9 8 7 8 8
6 8 5 5 9 3 1 4 7 6 8 11 13 11 11 13 10 13 13 11 10 10 17 5 10 9 6 9 12 14 14 13 14 14 11 7 2 2 4 4 4 4 3 2 2 1 2 3 1 1 1 3 1 3 5 5 5 5 5 4 5 5 6 7 6 7 7 7 8 8 7 7 8 7 8 8 8 9 9 9 9 9 9 9 9 8
4 5 5 5 8 4 1 2 2 7 3 3 9 12 15 15 16 18 17 14 14 12 9 7 12 16 8 11 12 14 13 8 5 3 1 4 4 4 3 4 5 5 5 5 4 5 6 5 3 2 3 1 5 6 5 5 5 5 5 5 5 5 6 6 6 6 6 6 6 7 7 7 7 8 7 7 8 8 8 8 9 9 9 9 9 9
4 4 7 4 5 4 1 1 1 1 3 6 5 7 10 15 17 19 17 15 9 10 0 5 5 10 7 6 9 9 4 5 2 5 8 5 3 5 7 6 6 5 5 4 5 7 6 4 3 2 2 4 4 4 3 3 3 3 3 4 5 6 6 6 6 5 5 6 6 6 6 6 6 6 7 6 7 7 8 8 8 8 8 8 8 9
3 2 2 3 6 3 1 2 2 3 2 0 2 6 10 13 13 13 13 6 8 11 10 3 6 13 6 4 6 4 4 8 9 9 6 5 6 6 8 8 7 7 7 7 6 6 4 2 2 4 4 4 4 4 4 5 4 4 5 5 5 6 5 5 5 5 5 5 5 5 5 6 6 6 7 6 7 7 7 7 6 7 8 8 7 8
4 6 5 3 6 4 3 1 5 5 2 4 9 14 21 16 13 6 5 3 13 16 10 8 16 13 6 12 9 3 6 8 7 8 8 5 5 8 10 11 10 8 7 8 6 3 3 3 3 3 3 3 4 4 5 5 5 6 6 6 6 5 5 5 4 5 5 5 4 5 6 6 7 7 7 7 7 7 7 6 6 6 6 7 7 7
5 7 5 3 6 2 2 1 3 6 7 13 9 7 12 15 15 9 9 15 13 8 9 8 8 2 8 7 11 11 11 10 11 9 5 9 9 7 5 8 9 8 6 3 2 2 2 2 2 2 2 2 2 2 3 4 4 5 5 6 5 5 5 5 5 5 6 6 7 7 7 8 8 9 9 8 7 7 7 7 7 7 7 6 6 7
7 4 5 3 5 3 1 2 5 8 13 5 2 3 15 14 12 19 19 14 11 9 7 6 4 5 9 13 13 13 11 2 4 5 5 4 9 11 11 9 6 5 5 4 3 1 1 1 2 3 4 4 4 4 4 4 4 5 5 4 5 5 6 6 6 6 7 8 7 8 9 9 9 10 9 9 8 9 8 8 9 9 7 7 7 8
8 8 4 2 5 4 4 4 5 9 4 2 3 1 1 3 4 5 8 7 5 9 13 15 18 8 7 7 5 2 0 1 3 3 1 2 4 9 9 8 6 6 5 4 4 2 1 1 1 2 3 3 4 4 4 5 5 5 5 4 4 5 5 5 5 7 8 9 9 10 9 9 10 9 10 10 11 10 11 11 10 11 10 10 9 8
9 5 5 4 2 7 6 8 8 4 6 2 3 3 7 9 8 11 10 14 15 13 14 16 14 6 8 4 4 1 3 3 1 1 1 1 3 3 7 7 7 6 5 3 3 2 1 1 1 1 1 2 2 2 4 4 4 4 4 3 4 5 5 6 8 10 10 10 10 11 10 10 11 11 10 10 11 11 11 12 13 12 9 11 11 11
5 8 4 7 4 7 6 1 1 3 10 11 6 2 1 4 9 9 7 9 3 10 13 12 9 9 8 5 4 5 4 4 6 9 5 4 2 4 3 4 4 4 3 3 2 1 1 1 1 1 1 0 0 2 3 3 4 4 5 8 8 10 9 10 10 10 10 10 10 10 10 10 9 10 10 10 10 11 11 10 8 8 7 8 11 12
3 2 2 6 2 5 3 5 6 8 11 2 4 6 5 5 10 6 2 9 6 10 10 14 11 9 12 12 9 7 8 9 12 9 9 8 5 3 7 4 4 3 3 3 3 3 1 1 0 1 1 1 4 5 5 6 6 8 9 9 9 9 9 10 10 11 12 12 11 10 9 9 8 8 9 9 9 8 10 10 9 9 8 8 8 10
5 3 5 5 4 5 6 8 9 4 4 2 6 3 5 6 8 7 0 9 2 8 11 11 12 12 14 12 13 13 13 10 13 9 9 10 7 5 4 6 5 4 4 3 3 2 1 2 3 4 7 9 7 6 7 6 7 7 8 8 7 7 8 8 9 9 9 10 10 10 9 8 9 9 9 11 12 10 9 9 9 9 8 9 8 9
4 1 6 11 10 10 10 4 3 5 3 3 5 3 5 5 8 7 15 8 6 8 8 13 14 16 11 10 12 11 12 4 2 5 12 9 8 4 3 3 3 4 4 4 3 2 3 3 4 4 4 4 5 6 7 7 8 8 6 7 7 7 7 7 8 9 9 9 10 10 10 8 7 10 11 8 9 10 10 8 9 10 9 10 9 9
6 5 2 6 8 10 10 11 10 4 4 8 2 6 6 7 6 13 7 1 6 6 1 4 7 4 9 14 13 8 3 2 4 9 11 9 9 7 5 5 5 5 3 3 5 5 4 5 6 6 6 6 8 8 7 7 8 7 7 7 7 6 7 7 8 8 8 9 10 10 10 10 10 8 8 9 8 10 11 9 7 8 9 7 8 10
9 8 8 10 6 3 3 6 4 10 4 8 12 2 2 6 6 5 2 0 1 3 5 2 6 6 8 7 4 6 7 6 9 11 10 9 9 8 7 6 6 6 5 5 6 6 6 5 6 6 6 6 7 7 7 5 5 5 5 6 7 6 7 7 8 8 8 9 10 10 10 10 10 10 8 9 8 9 12 10 9 9 8 8 9 10
7 6 2 4 6 8 11 12 8 4 4 8 11 8 5 10 2 5 8 3 1 3 4 4 3 6 7 11 11 8 9 11 7 9 8 6 6 6 6 6 5 6 5 5 4 5 5 5 4 5 4 5 5 5 4 4 4 5 5 7 6 7 7 7 7 8 9 9 9 10 10 10 11 10 9 9 9 9 10 11 10 10 8 7 8 9
6 8 5 7 5 7 4 3 3 4 9 10 4 1 5 6 1 5 4 5 7 4 4 4 7 5 6 10 11 14 10 8 11 9 11 9 7 6 6 6 6 6 6 5 5 5 5 5 6 6 6 4 3 3 3 4 5 6 7 7 8 8 9 8 9 9 10 10 10 10 10 11 11 10 10 9 7 9 10 11 9 10 10 7 7 8
3 1 1 3 4 2 1 2 1 1 2 5 0 1 1 1 0 3 5 5 4 5 10 9 8 8 9 10 14 4 9 11 11 7 7 7 7 6 6 6 6 5 5 4 4 5 4 5 4 4 5 6 4 4 4 4 5 7 8 9 9 9 9 10 11 12 12 12 11 12 12 14 14 11 10 10 8 8 8 9 10 10 11 9 8 9
3 1 1 3 2 7 7 4 6 5 2 2 2 0 0 0 3 2 3 3 4 7 5 2 10 11 14 12 13 14 11 9 10 7 7 7 6 6 6 6 5 5 4 4 4 4 4 2 3 3 4 7 5 6 5 5 5 5 7 8 9 9 10 10 10 12 11 11 12 12 11 12 11 12 12 10 9 9 9 8 8 9 10 9 9 9
4 3 1 2 2 8 6 3 2 3 4 4 2 2 3 4 2 1 1 1 3 5 3 6 7 9 6 8 9 14 11 8 11 9 7 6 6 5 5 4 3 3 4 4 3 2 2 2 2 4 4 6 7 6 6 6 6 7 7 7 8 8 8 9 10 12 12 12 11 11 11 11 13 13 12 12 10 10 11 10 8 10 11 11 9 10
2 5 5 5 7 2 2 2 2 2 2 4 4 6 5 4 5 3 5 6 7 10 9 6 2 5 6 8 8 12 12 6 7 9 9 6 6 5 4 4 3 2 1 1 1 1 1 1 3 3 4 5 4 5 6 7 7 7 8 8 8 7 9 11 13 12 12 11 10 11 10 10 11 11 12 13 12 10 10 10 11 11 12 12 9 9
3 6 2 4 2 3 9 7 6 3 4 7 10 11 6 4 6 7 5 6 8 11 9 11 7 5 5 5 8 11 12 8 6 7 8 6 6 5 5 4 2 0 0 1 1 1 2 4 2 3 3 3 3 5 6 7 7 7 7 7 5 7 10 12 12 11 11 10 10 10 10 10 10 10 10 11 12 13 13 13 16 14 12 14 15 19
7 6 6 6 8 9 9 7 9 9 4 4 7 7 8 8 8 11 10 11 6 6 11 15 12 6 7 5 2 9 11 11 8 7 8 6 6 5 4 4 2 1 2 1 1 2 2 2 2 2 3 5 5 6 7 7 7 8 7 5 8 9 9 10 10 10 10 10 10 12 13 12 12 11 10 10 11 12 13 14 13 16 21 21 22 21
Wind_Direction
116 132 166 181 184 185 176 149 153 153 131 108 80 97 170 152 272 274 274 270 162 114 241 249 282 278 281 273 275 283 234 288 278 273 271 268 266 267 268 257 262 258 254 279 263 268 269 266 256 240 215 219 215 215 208 207 213 211 208 197 213 204 197 195 194 193 192 200 203 208 209 215 209 211 204 208 212 208 206 208 206 199 199 196 196 196
66 135 221 208 188 167 144 125 106 73 56 130 128 131 175 206 135 228 144 356 315 136 291 45 318 276 264 271 268 279 309 270 254 267 269 273 266 265 263 274 265 263 290 302 292 290 296 289 282 273 238 209 208 223 208 214 216 214 210 210 216 182 201 204 202 199 199 201 205 203 213 212 208 203 207 216 207 210 204 196 203 219 214 208 203 199
142 187 223 205 128 97 90 85 71 117 112 54 137 151 108 245 240 304 306 337 337 102 268 26 340 283 277 273 275 267 263 257 261 236 264 280 287 283 281 280 284 294 288 301 279 292 292 298 297 286 264 247 236 240 209 223 216 211 209 216 208 197 198 207 206 201 210 205 208 206 209 196 215 228 212 213 205 200 215 220 208 195 194 198 208 208
137 273 237 150 147 110 58 84 98 78 67 112 104 110 199 236 129 236 279 352 1 85 304 295 319 282 298 296 283 285 254 289 289 283 272 246 261 271 273 281 290 288 292 296 297 297 300 303 304 313 294 256 255 247 238 214 216 216 216 214 206 201 200 202 205 211 211 199 198 207 205 193 198 200 208 224 228 214 212 220 212 229 220 211 212 202
181 259 350 137 145 130 123 112 116 110 111 351 123 128 131 163 224 146 180 298 308 43 58 2 293 308 344 354 334 317 324 315 326 334 353 323 243 262 284 289 251 261 276 284 300 305 310 321 317 307 299 302 243 232 225 213 211 204 210 204 197 196 197 194 190 197 189 167 179 154 81 82 86 30 178 197 228 219 219 228 217 221 202 211 222 227
274 337 152 114 101 95 114 127 174 127 74 60 228 170 192 168 134 262 25 100 20 328 14 43 10 328 304 304 244 291 347 351 334 26 8 340 347 349 358 339 329 294 247 251 275 290 301 304 319 339 344 358 312 264 243 223 216 201 199 191 193 192 192 193 189 183 179 192 186 171 182 192 201 218 194 212 217 210 210 219 221 219 212 218 221 216
185 9 120 156 139 128 138 165 213 142 158 122 233 165 144 140 123 124 119 75 53 134 347 9 129 263 330 312 287 332 333 323 327 24 356 0 358 3 358 348 344 350 349 335 287 322 354 349 355 356 8 352 338 305 289 262 225 208 197 190 189 190 189 186 182 177 180 192 198 200 206 211 214 222 232 228 229 225 223 218 224 228 220 221 224 228
93 88 73 82 109 125 133 191 221 145 125 193 243 126 117 113 126 153 108 101 169 247 270 45 80 182 309 291 270 297 315 348 355 358 5 6 0 0 356 353 352 348 348 346 349 351 352 347 356 346 327 343 333 301 310 316 311 217 204 184 188 188 185 186 178 181 183 193 198 205 213 216 222 224 240 230 235 234 225 211 223 223 224 220 225 231
118 159 160 139 79 126 179 210 186 144 130 216 210 137 125 129 133 116 91 103 102 28 273 348 346 67 260 267 310 355 67 5 341 349 5 352 355 358 0 2 355 347 337 330 344 356 346 349 348 341 350 337 344 359 1 344 330 314 201 180 166 176 175 186 181 182 197 202 200 209 218 231 237 248 256 255 239 227 222 234 236 231 232 230 229 229
335 162 203 148 134 182 232 327 124 132 91 249 132 93 96 85 71 90 101 86 349 74 266 225 11 192 279 274 331 331 179 265 222 16 338 336 327 346 6 5 6 3 5 4 356 341 343 318 323 322 311 4 4 349 352 16 26 41 78 101 124 134 123 120 162 169 186 201 182 206 216 227 237 227 250 240 248 233 211 234 239 233 235 233 233 234
242 327 192 93 174 169 129 48 97 349 122 131 125 85 47 41 34 36 61 84 64 5 253 269 308 153 308 270 227 145 203 189 188 340 331 351 26 25 21 15 8 11 16 29 43 46 49 47 38 21 48 8 11 12 27 28 28 26 46 85 88 53 48 61 116 160 181 187 195 210 212 222 231 228 226 232 241 229 229 231 236 226 232 231 234 236
21 0 46 316 73 116 105 77 29 74 96 121 107 131 84 6 9 31 349 31 112 266 260 272 292 272 174 294 325 236 290 212 147 133 68 45 25 20 10 6 2 4 11 25 55 48 44 51 45 55 48 41 31 33 30 28 25 36 43 76 86 50 49 54 74 154 183 187 207 219 221 226 232 232 230 233 241 230 234 236 242 235 242 242 239 241
52 108 224 15 216 121 131 89 358 350 347 89 99 93 111 228 35 268 10 253 197 196 250 331 169 15 241 227 242 307 258 231 216 162 102 46 26 12 8 0 345 343 9 48 51 55 47 50 40 41 33 32 28 24 23 21 22 29 40 43 76 42 11 28 18 110 259 226 234 234 239 245 249 247 241 245 250 244 240 241 246 239 237 233 238 236
270 274 41 337 54 230 150 123 144 148 301 125 138 144 112 113 70 215 276 280 315 291 269 319 274 262 252 285 238 231 237 204 210 226 227 212 242 307 322 330 339 355 26 46 58 58 57 50 50 47 45 42 35 28 23 20 25 17 36 33 55 20 18 19 41 24 347 289 287 272 251 253 249 247 244 245 245 248 239 240 246 240 236 237 232 229
123 286 247 150 199 159 156 160 171 149 156 206 24 147 173 142 156 201 191 184 210 194 279 274 79 233 130 233 205 213 239 257 255 251 255 252 250 262 281 282 295 19 32 38 60 57 55 50 49 52 48 45 40 36 31 28 23 26 34 27 30 25 12 18 14 17 286 263 268 260 252 257 253 256 259 257 254 258 253 250 248 251 247 244 247 239
199 193 285 307 260 287 166 260 112 103 45 302 163 77 97 214 130 125 207 138 160 143 34 236 215 193 164 295 279 288 288 283 242 261 268 278 279 278 92 86 75 48 47 42 64 58 49 52 51 55 52 46 46 43 41 34 23 31 22 21 29 23 352 355 355 356 314 287 278 274 274 267 260 265 272 277 271 264 258 263 250 258 251 247 252 247
35 231 349 308 42 73 138 266 341 133 171 218 97 197 204 105 99 105 54 25 97 46 252 158 317 292 298 310 318 328 119 83 84 144 164 197 136 118 117 102 73 57 52 52 58 57 56 56 54 57 59 57 53 49 47 41 33 39 32 34 30 15 13 10 358 349 342 326 328 311 300 293 289 271 263 268 277 272 270 258 263 258 261 263 253 255
150 190 357 57 95 357 141 162 115 37 142 98 181 218 170 138 125 126 162 346 58 163 262 89 220 287 48 233 332 105 162 114 91 175 184 171 145 126 137 120 100 63 44 49 62 58 53 51 52 54 60 55 56 55 52 49 43 52 54 52 57 39 32 8 357 350 349 344 341 333 331 318 281 276 272 267 275 282 280 273 259 265 267 256 258 252
118 77 1 357 179 292 3 2 50 27 52 139 202 174 110 191 215 318 93 203 136 255 267 307 283 268 192 237 287 209 184 195 200 162 150 150 148 147 154 162 179 34 60 68 69 71 64 55 49 48 53 51 58 59 56 54 55 58 53 45 56 56 34 11 354 343 340 343 324 318 316 313 314 301 288 282 278 287 279 274 272 263 260 273 262 255
52 136 301 351 122 278 356 97 187 200 343 32 92 84 318 101 151 129 198 173 126 234 68 290 49 238 203 220 192 202 196 174 169 152 177 162 158 160 165 163 154 144 98 72 59 52 51 47 43 43 42 43 39 39 36 40 42 41 30 37 32 41 40 35 33 18 22 1 358 338 329 322 307 301 299 297 303 294 279 278 280 278 277 267 273 257
140 110 150 270 304 90 172 197 214 162 150 96 111 188 90 36 230 100 27 122 180 170 181 200 313 271 255 219 192 206 185 179 162 165 171 173 168 178 173 170 172 133 96 78 70 62 51 44 36 32 31 35 42 45 42 39 39 35 28 29 21 22 12 16 13 14 7 355 9 14 4 341 333 325 322 316 304 289 282 285 281 277 276 297 277 270
91 136 145 151 64 223 239 260 225 170 191 176 164 187 172 127 143 154 244 31 97 114 214 135 244 274 271 181 212 210 202 177 198 160 172 169 176 177 194 198 155 108 93 90 77 67 55 43 36 34 34 41 47 38 37 29 37 32 31 19 14 17 23 11 7 4 352 348 357 17 2 354 343 333 334 325 314 298 295 293 291 286 295 279 280 282
140 129 106 164 210 164 230 307 238 260 344 191 166 224 163 156 98 113 186 236 62 351 101 156 353 272 245 209 222 244 210 198 185 180 154 168 173 188 199 202 228 141 82 86 88 74 62 48 34 32 32 33 37 33 31 31 33 28 20 18 15 20 8 5 350 334 327 347 6 11 3 353 353 346 338 334 322 319 312 306 299 297 288 284 287 283
81 99 73 339 314 309 330 314 69 192 144 1 285 89 151 198 187 172 166 176 149 145 105 359 239 254 288 263 250 250 243 239 280 153 164 162 181 200 201 197 77 67 68 87 80 74 62 63 54 40 31 27 23 24 25 24 25 23 23 14 10 14 360 356 354 341 350 8 17 9 4 357 328 337 339 351 338 330 324 315 310 308 292 285 290 288
155 245 124 120 35 345 344 349 354 348 48 211 194 202 166 69 75 131 104 66 97 215 164 131 233 276 271 309 321 294 164 173 175 204 186 164 192 196 193 183 11 46 65 58 57 53 47 44 43 37 32 30 16 16 20 24 22 18 8 11 9 359 351 352 347 348 353 5 12 16 15 10 6 6 5 1 352 342 331 322 312 307 302 302 295 287
130 172 137 153 163 169 195 196 216 213 206 187 265 168 184 153 140 136 158 137 177 264 153 167 244 251 276 325 10 159 156 186 211 225 254 206 181 182 174 113 47 63 65 62 55 48 42 33 25 27 23 16 6 359 12 26 30 18 8 4 2 354 349 349 343 345 355 8 12 9 10 5 3 4 358 352 349 346 339 333 331 325 314 301 299 300
162 153 193 178 189 200 206 202 31 91 72 185 218 165 184 176 167 111 104 113 212 191 175 231 169 180 243 293 219 182 178 183 185 218 204 198 230 237 225 193 124 99 79 53 26 40 38 42 35 10 358 343 339 335 358 27 24 18 9 360 358 355 349 340 343 348 2 5 11 4 4 1 358 352 348 347 340 335 338 340 336 334 333 328 313 310
89 179 218 201 216 220 153 159 207 148 167 191 135 186 176 157 175 152 170 215 140 99 255 230 187 179 234 242 222 190 201 221 221 198 204 205 199 196 193 100 93 96 80 75 69 40 48 270 13 355 313 302 294 315 8 20 19 6 357 352 349 348 346 342 344 349 357 3 2 6 356 352 341 343 339 334 333 333 334 335 337 337 330 329 330 323
142 195 221 161 236 183 119 169 167 161 176 174 180 165 171 180 162 186 211 214 135 190 230 208 149 219 223 212 203 198 185 193 199 197 198 183 161 141 117 118 125 143 124 155 209 275 265 242 230 248 265 243 261 18 15 12 3 357 345 329 330 332 336 332 339 345 351 353 359 352 341 335 336 332 332 332 333 336 336 335 331 329 330 332 330 326
125 230 186 169 216 173 232 145 206 159 128 141 183 180 182 169 188 198 213 208 187 217 228 152 183 215 192 207 203 207 206 190 184 193 133 179 178 149 123 137 159 171 180 189 200 214 224 221 208 217 221 354 28 21 12 4 351 342 337 333 336 336 329 340 333 338 336 343 337 328 327 325 323 323 323 326 331 328 325 323 324 324 325 324 321 319
152 251 134 137 186 239 249 57 80 112 140 184 218 192 186 188 196 204 209 216 202 246 123 170 214 248 251 216 207 218 152 79 105 179 203 193 139 164 165 168 177 186 192 193 199 213 214 209 198 199 66 36 25 9 351 337 324 312 314 327 332 335 325 331 325 331 330 329 319 313 311 318 314 313 319 314 312 312 314 314 312 312 309 307 309 308
151 225 46 97 166 268 340 159 106 79 56 110 193 190 200 199 206 216 215 192 175 212 212 159 253 253 214 204 233 213 130 161 188 201 198 222 206 167 170 179 180 186 187 187 196 197 191 168 85 41 30 12 360 358 352 341 336 333 344 338 335 331 317 322 316 317 316 305 301 306 315 315 317 322 321 323 321 316 308 301 302 303 301 303 305 301
164 136 141 138 163 245 287 107 122 100 68 306 253 216 203 204 203 204 228 210 204 200 193 182 230 235 143 193 199 207 187 199 194 199 209 223 209 180 179 178 181 177 171 179 173 147 83 55 46 32 18 12 356 349 334 329 336 344 334 332 323 320 324 324 319 314 320 324 319 332 334 333 336 332 331 333 322 312 309 303 301 303 308 307 296 293
124 137 161 169 164 241 323 130 130 103 205 228 237 198 169 192 195 188 206 217 222 177 204 200 234 156 160 178 190 209 205 210 202 208 185 174 180 197 187 171 174 170 164 135 106 91 50 14 16 14 353 320 307 305 293 306 306 310 309 302 311 327 331 338 341 343 345 345 351 350 348 348 345 342 338 334 333 331 328 330 327 318 306 303 307 305
149 135 148 150 107 175 224 73 105 207 230 237 316 190 188 193 178 198 217 216 215 213 249 287 253 196 185 185 195 207 212 177 47 154 197 207 170 167 168 171 159 141 127 131 105 91 60 26 357 6 5 360 346 333 338 333 333 319 318 317 330 337 338 345 339 354 352 347 347 349 350 347 343 337 335 334 334 333 332 332 327 328 330 325 322 320
158 143 153 56 126 66 89 164 194 231 235 298 261 332 13 129 183 181 270 270 236 202 206 228 235 196 190 205 242 298 222 134 59 37 96 179 167 155 148 155 156 143 140 162 134 139 123 86 8 352 324 315 344 335 337 324 321 329 316 311 326 334 341 341 350 355 353 351 351 349 347 345 340 337 336 336 336 336 334 333 332 329 329 325 321 316
147 116 136 163 194 160 183 196 225 334 333 276 258 234 164 165 155 170 215 245 216 204 197 217 230 146 189 199 202 108 118 90 88 293 308 184 131 127 139 143 150 157 136 162 158 151 168 179 176 250 249 307 296 310 328 315 312 307 305 333 351 352 349 355 5 0 354 348 345 345 344 344 339 335 334 334 333 331 331 331 328 328 333 326 323 322
155 154 221 149 220 135 131 150 343 254 249 237 227 270 190 165 169 177 174 273 271 198 200 205 213 169 175 164 178 169 135 113 239 244 216 223 201 128 88 112 115 125 138 130 152 128 147 172 186 210 182 212 212 342 329 329 333 332 359 5 1 2 359 6 2 353 348 342 340 337 337 336 336 329 328 328 326 322 317 315 309 307 320 313 312 311
5 65 135 153 169 105 158 188 198 207 238 207 197 203 180 147 135 115 95 259 248 185 190 193 201 168 178 181 183 142 141 198 228 219 188 183 180 170 133 130 124 123 129 117 110 68 31 11 185 179 152 131 32 2 356 354 1 10 9 4 359 359 356 355 349 347 341 334 331 330 328 327 325 321 318 316 312 313 310 311 308 304 306 297 295 294
141 153 118 176 190 198 184 206 227 208 252 229 194 210 184 147 122 95 293 256 238 161 189 179 188 184 200 190 155 172 171 209 229 226 167 164 163 160 139 134 109 99 75 83 90 90 54 35 39 33 25 21 6 348 360 4 13 17 5 353 351 351 348 341 338 327 323 322 322 322 323 324 323 318 319 316 313 313 307 307 308 306 308 303 300 299
152 157 193 200 196 206 200 244 335 289 268 204 196 181 148 180 118 150 218 237 202 190 179 170 188 203 184 158 164 179 216 199 205 160 135 134 117 107 73 83 109 107 88 63 33 52 68 54 59 48 38 15 2 360 2 9 10 1 355 343 343 337 332 327 323 322 320 319 318 319 318 317 315 312 310 304 300 302 302 303 301 304 306 303 303 301
188 169 205 193 202 200 206 212 225 262 233 172 331 151 174 113 200 213 227 222 163 202 258 196 195 166 151 170 185 202 139 132 114 111 127 137 138 135 132 125 111 87 89 86 65 46 34 29 19 15 19 20 12 7 6 11 4 341 338 335 327 321 328 326 321 318 317 315 315 313 313 311 310 303 297 301 301 301 298 295 287 286 290 291 291 296
179 173 187 186 189 196 185 218 203 238 243 117 123 72 285 174 235 193 155 46 182 178 155 190 165 191 152 164 161 127 125 121 131 132 128 133 134 140 136 121 106 98 73 43 28 20 37 24 13 11 7 3 10 5 356 9 349 321 316 312 303 322 325 320 318 315 312 311 309 309 307 306 304 304 304 300 298 295 295 298 300 294 291 292 295 294
177 190 163 202 191 194 194 202 207 215 115 175 137 194 187 216 197 162 141 155 259 164 178 149 206 178 177 149 149 141 137 130 116 127 122 122 126 115 103 99 97 88 79 70 67 34 33 16 10 0 2 1 2 358 348 359 331 313 310 306 318 331 326 324 322 315 313 310 309 310 309 308 306 303 300 298 299 296 293 298 300 297 290 288 288 292
204 198 173 191 188 199 210 215 270 193 174 204 175 178 215 181 113 172 140 151 150 218 181 157 180 169 172 146 142 144 142 155 147 151 142 150 136 129 115 107 97 97 81 68 46 30 34 10 352 346 337 344 357 350 355 354 345 322 321 320 342 331 330 327 324 322 317 316 313 313 310 308 303 302 299 295 289 293 296 296 296 297 297 290 283 280
332 187 63 106 222 172 278 160 201 269 253 239 99 108 18 153 298 134 149 134 227 172 174 175 171 161 147 153 132 160 149 153 142 144 127 129 123 112 103 97 89 79 75 65 47 34 24 2 354 338 320 321 349 2 360 357 354 341 325 334 333 330 327 328 328 326 323 320 317 315 317 311 307 305 297 295 289 277 276 280 290 290 292 291 282 281
258 145 135 183 250 172 241 172 191 220 274 271 247 68 270 132 211 180 205 243 184 160 163 155 161 162 159 165 154 150 153 154 138 133 130 123 119 118 112 109 94 88 75 62 34 38 10 355 332 322 329 328 338 355 352 358 351 335 325 329 324 324 324 324 325 319 319 317 315 313 312 308 305 309 306 301 297 289 284 276 277 280 280 280 279 281
278 185 137 215 190 188 232 234 262 310 261 260 217 185 218 214 205 218 224 146 121 107 109 130 133 128 143 145 151 140 146 150 138 141 134 135 129 123 108 97 79 57 46 58 21 29 8 342 357 345 339 330 331 348 343 340 337 329 325 318 317 315 318 323 324 319 314 312 308 306 306 303 301 300 300 300 299 296 294 287 273 276 277 281 279 283
206 119 210 184 198 284 353 278 269 357 317 272 241 241 229 180 148 121 130 131 135 125 116 83 59 138 147 144 136 132 131 143 140 141 134 127 116 109 107 93 81 81 63 31 338 17 356 21 1 342 334 314 326 337 332 330 326 324 321 317 312 316 334 330 321 316 310 306 304 302 303 299 299 298 298 297 295 284 275 280 283 278 272 261 255 249
93 194 217 128 166 206 205 218 147 163 245 244 230 218 191 170 158 142 139 137 148 139 139 120 86 54 80 108 141 137 135 134 125 125 128 130 132 122 113 103 92 51 25 301 29 8 43 5 352 328 310 309 327 333 328 325 320 313 307 303 320 353 340 326 320 317 314 312 307 305 302 299 294 292 291 292 295 297 291 270 266 259 262 279 267 259
187 205 143 178 183 216 232 225 190 212 243 229 211 179 162 173 160 158 174 165 163 152 148 133 123 102 96 57 33 132 138 142 144 127 126 129 129 112 111 125 156 193 249 347 32 358 9 325 328 322 337 336 339 330 324 317 314 307 309 348 358 345 328 322 318 313 310 311 309 306 305 301 301 300 295 290 294 297 298 301 293 275 257 251 267 271